User: anonymous   Login
Location: Caltech
(34.1382°N, 118.1253°W)
Time: 15:35:36
(UTC-07:00)
Language:

OAO 1 Rocket - Orbit

View from above orbital plane
View from above orbital plane
View from above satellite
View from above satellite

Ground track
Ground track

The orbit data is extracted from the following two-line orbital elements,

1 02144U 66031B   16211.43095732  .00000043  00000-0  18568-4 0  9990
2 02144  35.0413 188.5849 0008023 107.6221 252.5346 14.42564441641478
Epoch (UTC): 29 July 2016 10:20:34
Eccentricity: 0.0008023
inclination: 35.0413°
perigee height: 744 km
apogee height: 756 km
right ascension of ascending node: 188.5849°
argument of perigee: 107.6221°
revolutions per day: 14.42564441
mean anomaly at epoch: 252.5346°
orbit number at epoch: 64147

The dashed part of the orbit path shows where the satellite is in the earth's shadow,  

DLR